EHI
0 0 0 0 0 0 0 0 0 0 0 0 0 0 1 5 7 6 5 6 7 7 6 5 5 6 5 2 1 0 0 0 0 0 0 0 0 0 0 0 0 0 0 0
0 0 0 0 0 0 0 0 0 0 0 0 0 0 1 3 5 5 5 5 6 7 7 5 4 5 3 1 0 0 0 0 0 0 0 0 0 0 0 0 0 0 0 0
0 0 0 0 0 0 0 0 0 0 0 0 0 0 0 1 2 3 4 5 6 7 7 5 4 3 1 0 0 0 0 0 0 0 0 0 0 0 0 0 0 0 0 0
0 0 0 0 0 0 0 0 0 0 0 0 0 0 0 0 1 1 3 5 7 7 6 6 4 3 1 0 0 0 0 0 0 0 0 0 0 0 0 0 0 0 0 0
0 0 0 0 0 0 0 0 0 0 0 0 0 0 0 0 0 0 2 5 7 7 7 6 5 3 1 0 0 0 0 0 0 0 0 0 0 0 0 0 0 0 0 0
0 0 0 0 0 0 0 0 0 0 0 0 0 0 0 0 0 0 0 2 5 7 8 7 6 4 2 0 0 0 0 0 0 0 0 0 0 0 0 0 0 0 0 0
0 0 0 0 0 0 0 0 0 0 0 0 0 0 0 0 0 0 0 1 3 6 8 7 6 4 2 0 0 0 0 0 0 0 0 0 0 0 0 0 0 0 0 0
0 0 0 0 0 0 0 0 0 0 0 0 0 0 0 0 0 0 0 0 2 4 6 7 6 4 3 2 0 0 0 0 0 0 0 0 0 0 0 0 0 0 0 0
0 0 0 0 0 0 0 0 0 0 0 0 0 0 0 0 0 0 0 0 0 2 4 5 5 4 5 4 2 0 0 0 0 0 0 0 0 0 0 0 0 0 0 0
0 0 0 0 0 0 0 0 0 0 0 0 0 0 0 0 0 0 0 0 0 0 1 2 3 4 5 5 3 1 0 0 0 0 0 0 0 0 0 0 0 0 0 0
0 0 0 0 0 0 0 0 0 0 0 0 0 0 0 0 0 0 0 0 0 0 0 0 1 2 4 4 3 1 0 0 0 0 0 0 0 0 0 0 0 0 0 0
0 0 0 0 0 0 0 0 0 0 0 0 0 0 0 0 0 0 0 0 0 0 0 0 0 1 2 2 1 1 0 0 0 0 0 0 0 0 0 0 0 0 0 0
0 0 0 0 0 0 0 0 0 0 0 0 0 0 0 0 0 0 0 0 0 0 0 0 0 1 1 1 0 0 0 0 0 0 0 0 0 0 0 0 0 0 0 0
0 0 0 0 0 0 0 0 0 0 0 0 0 0 0 0 0 0 0 0 0 0 0 0 0 0 0 0 0 0 0 0 0 0 0 0 0 0 0 0 0 0 0 0
0 0 0 0 0 0 0 0 0 0 0 0 0 0 0 0 0 0 0 0 0 0 0 0 0 0 0 0 0 0 0 0 0 0 0 0 0 0 0 0 0 0 0 0
0 0 0 0 0 0 0 0 0 0 0 0 0 0 0 0 0 0 0 0 0 0 0 0 0 0 0 0 0 0 0 0 0 0 0 0 0 0 0 0 0 0 0 0
0 0 0 0 0 0 0 0 0 0 0 0 0 0 0 0 0 0 0 0 0 0 0 0 0 0 0 0 0 0 0 0 0 0 0 0 0 0 0 0 0 0 0 0
0 0 0 0 0 0 0 0 0 0 0 0 0 0 0 0 0 0 0 0 0 0 0 0 0 0 0 0 0 0 0 0 0 0 0 0 0 0 0 0 0 0 0 0
0 0 0 0 0 0 0 0 0 0 0 0 0 0 0 0 0 0 0 0 0 0 0 0 0 0 0 0 0 0 0 0 0 0 0 0 0 0 0 0 0 0 0 0
0 0 0 0 0 0 0 0 0 0 0 0 0 0 0 0 0 0 0 0 0 0 0 0 0 0 0 0 0 0 0 0 0 0 0 0 0 0 0 0 0 0 0 0
0 0 0 0 0 0 0 0 0 0 0 0 0 0 0 0 0 0 0 0 0 0 0 0 0 0 0 0 0 0 0 0 0 0 0 0 0 0 0 0 0 0 0 0
0 0 0 0 0 0 0 0 0 0 0 0 0 0 0 0 0 0 0 0 0 0 0 0 0 0 0 0 0 0 0 0 0 0 0 0 0 0 0 0 0 0 0 0
0 0 0 0 0 0 0 0 0 0 0 0 0 0 0 0 0 0 0 0 0 0 0 0 0 0 0 0 0 0 0 0 0 0 0 0 0 0 0 0 0 0 0 0
0 0 0 0 0 0 0 0 0 0 0 0 0 0 0 0 0 0 0 0 0 0 0 0 0 0 0 0 0 0 0 0 0 0 0 0 0 0 0 0 0 0 0 0
0 0 0 0 0 0 0 0 0 0 0 0 0 0 0 0 0 0 0 0 0 0 0 0 0 0 0 0 0 0 0 0 0 0 0 0 0 0 0 0 0 0 0 0
0 0 0 0 0 0 0 0 0 0 0 0 0 0 0 0 0 0 0 0 0 0 0 0 0 0 0 0 0 0 0 0 0 0 0 0 0 0 0 0 0 0 0 0
Wind_Speed
1 2 4 7 8 7 4 3 5 4 1 2 2 3 3 2 3 4 4 4 5 4 5 5 6 7 7 5 5 6 6 6 5 4 3 3 2 1 1 0 1 1 2 3
3 5 8 4 3 4 3 3 3 2 1 1 1 3 2 2 4 5 6 6 7 6 6 6 7 7 7 7 6 6 6 6 6 4 3 3 3 2 1 1 1 1 1 2
6 8 4 3 2 1 2 4 3 2 1 4 2 4 2 1 1 2 4 4 5 8 10 9 8 8 8 9 9 8 7 6 5 5 4 4 3 3 1 1 1 1 2 2
7 6 3 3 3 2 3 3 2 3 3 2 3 3 5 1 2 3 5 5 6 7 8 8 8 9 10 10 8 7 7 6 5 5 5 5 4 3 4 3 2 2 1 2
6 2 2 4 4 3 2 3 5 4 3 2 3 0 7 1 3 5 6 7 7 7 8 9 10 10 9 9 8 6 6 5 5 5 6 5 4 3 2 2 2 2 1 2
7 3 3 3 1 3 6 6 6 5 5 2 2 1 6 4 6 5 5 7 8 8 8 8 7 7 6 7 6 6 6 6 6 6 6 6 6 5 4 3 3 2 1 1
4 3 2 2 3 3 4 6 5 6 5 4 2 2 9 7 6 6 7 8 8 8 9 9 8 8 8 8 7 7 7 7 6 7 6 7 7 7 7 5 5 3 2 2
3 6 3 3 4 5 3 6 6 3 4 5 2 4 8 5 4 4 5 6 7 8 9 10 10 10 9 9 8 8 9 8 7 8 7 6 6 5 4 5 4 4 4 4
7 6 2 2 2 7 5 3 4 6 2 2 5 6 9 1 1 3 5 6 8 9 10 11 10 10 10 10 10 10 10 9 9 9 8 7 7 6 6 5 5 4 4 3
7 3 3 1 3 3 4 7 5 5 3 2 5 5 5 4 4 4 6 8 9 9 9 10 10 11 10 10 9 8 9 10 9 9 8 7 7 7 6 5 6 6 5 4
4 4 2 2 1 3 4 4 5 4 4 5 2 7 7 7 6 7 9 9 9 10 11 11 10 10 9 8 8 8 9 9 8 9 9 8 8 7 7 6 7 6 5 6
3 5 1 3 2 1 3 5 7 4 3 4 3 9 5 5 5 6 8 8 8 9 9 9 9 8 8 9 9 9 9 9 10 9 9 9 8 7 8 8 8 7 7 6
6 6 3 5 5 2 1 3 4 5 5 5 4 9 3 2 2 4 6 7 7 8 8 7 8 8 9 10 9 10 10 10 9 8 9 8 8 9 9 10 9 8 8 7
7 5 6 7 7 4 2 3 5 6 4 5 8 9 8 6 5 5 4 5 6 6 7 8 8 8 9 9 9 10 10 9 9 9 9 10 10 11 11 9 9 9 8 8
5 4 4 5 3 3 4 4 6 7 7 8 8 7 8 6 5 5 4 2 2 3 4 7 8 7 7 7 7 8 8 8 8 9 10 12 10 9 8 9 9 8 9 10
4 4 2 2 1 2 3 5 5 5 5 6 5 6 4 3 2 2 3 2 1 1 1 2 3 4 5 7 7 7 7 7 7 9 10 8 6 7 8 9 8 8 9 9
3 5 4 2 2 1 5 5 5 4 3 5 6 5 1 2 5 5 5 5 4 4 3 2 1 2 2 3 4 5 5 4 5 6 6 5 6 8 8 8 7 9 9 8
7 5 4 1 1 5 7 2 3 4 2 3 2 1 2 4 4 6 6 6 7 7 7 6 4 4 3 2 1 2 3 3 3 3 4 4 4 6 5 6 8 9 7 7
4 7 5 3 2 6 5 2 3 4 2 3 4 3 3 4 4 8 9 8 7 7 6 6 7 6 7 6 5 6 5 4 3 1 2 2 2 4 4 6 8 7 6 8
5 5 5 4 3 6 7 1 2 3 4 3 4 4 2 2 4 2 5 7 9 9 8 9 9 10 11 9 7 9 8 7 6 4 3 2 2 3 4 5 6 4 5 7
3 4 3 4 4 8 4 1 3 3 7 3 4 3 3 4 4 4 4 7 7 8 9 10 11 11 10 7 9 11 10 8 6 5 5 5 4 3 3 3 3 3 4 5
5 4 4 4 3 8 2 4 6 6 1 3 4 4 7 9 8 7 6 7 7 8 9 9 10 9 7 7 9 10 8 5 5 6 7 6 6 5 5 4 4 4 4 5
6 7 6 8 8 5 3 4 2 3 3 3 4 5 9 9 8 7 6 6 6 7 7 6 7 8 7 7 7 8 5 4 5 7 7 6 6 5 5 4 5 4 4 4
3 3 3 4 7 4 4 3 2 2 3 4 6 8 10 10 9 8 6 5 5 5 5 4 6 7 5 5 6 4 3 4 5 5 5 5 5 6 6 4 4 4 4 4
4 5 3 5 6 3 2 3 3 4 6 8 9 9 10 11 9 7 6 5 4 4 3 3 4 4 3 3 4 4 3 3 4 4 4 4 4 4 5 5 4 4 4 5
3 7 7 7 6 5 3 2 5 7 8 9 11 10 8 9 9 7 5 4 3 3 2 2 2 2 1 2 3 3 3 2 3 3 4 3 4 4 4 5 6 7 7 11
Wind_Direction
43 42 264 242 211 218 235 247 266 270 234 140 218 262 264 198 188 193 195 195 198 180 151 141 143 145 142 140 148 155 150 149 141 133 130 127 134 134 129 153 142 122 111 102
7 276 251 253 213 207 212 240 261 297 41 94 288 287 278 206 208 203 200 204 195 174 163 161 158 158 162 164 173 174 174 167 165 147 138 136 132 140 152 127 131 174 150 138
225 252 285 304 289 210 227 208 229 209 52 41 13 332 302 270 249 211 210 203 192 185 180 176 173 172 171 179 186 186 187 176 167 141 116 96 81 71 79 145 217 224 189 166
238 261 273 290 281 200 261 258 167 120 87 342 33 309 293 261 265 229 216 198 194 190 179 177 178 180 182 188 185 185 183 176 167 154 152 150 157 172 199 193 200 216 200 184
250 246 263 262 252 180 181 66 83 82 95 23 15 302 290 311 258 243 222 208 196 190 183 185 184 184 185 182 182 182 179 181 174 169 168 160 163 175 167 163 190 212 232 216
250 245 222 230 12 108 119 73 56 53 63 355 295 181 284 242 225 227 213 206 197 188 187 190 183 178 184 183 181 177 181 191 181 175 174 176 175 170 166 181 194 210 222 234
298 285 231 155 97 61 88 83 26 359 6 273 278 242 255 252 228 204 198 201 197 185 185 188 189 190 194 191 189 185 187 198 190 182 186 189 185 179 185 189 195 195 201 215
231 284 238 189 169 165 161 137 154 203 242 288 321 254 259 258 238 211 190 187 187 185 190 195 197 198 201 200 196 191 195 203 192 191 197 194 188 184 194 194 190 196 204 213
189 244 270 207 172 139 136 162 156 131 144 299 291 287 301 269 201 186 181 181 193 197 196 200 200 201 203 203 202 198 199 203 198 198 195 194 193 192 199 198 195 201 209 216
166 216 290 322 84 63 130 141 103 114 145 269 299 288 262 259 221 194 192 201 206 201 202 205 205 206 207 208 205 197 199 204 201 196 197 201 199 200 198 191 199 206 211 212
145 159 308 22 153 170 118 104 105 112 151 160 260 274 234 224 212 204 210 209 205 202 204 205 207 207 205 203 198 198 201 201 198 198 199 198 199 198 194 199 207 206 207 207
140 123 223 272 273 179 167 164 147 151 210 172 184 267 273 235 227 214 220 218 210 209 208 205 203 199 199 202 201 202 202 202 204 199 195 201 199 193 198 209 212 206 209 211
138 115 77 348 343 345 155 152 140 125 119 153 179 263 295 338 278 240 231 229 218 211 209 204 199 199 203 204 203 204 204 206 202 191 194 200 201 200 208 213 212 207 210 215
116 122 161 196 220 208 214 184 148 134 154 196 221 252 297 317 301 284 260 239 224 216 209 205 207 209 208 204 202 202 206 202 193 189 195 204 208 209 212 213 210 210 210 214
116 160 205 230 232 186 214 220 182 186 195 197 230 230 260 281 280 282 279 253 204 218 213 209 211 213 210 208 207 206 207 197 189 190 202 214 214 211 211 212 213 212 212 218
106 150 159 274 242 210 241 243 216 210 210 223 243 256 260 298 318 359 3 46 70 273 253 235 222 213 209 209 209 206 207 197 185 199 215 220 213 214 218 220 217 215 218 218
119 131 132 250 311 26 264 239 202 201 204 195 216 237 320 36 36 22 18 41 39 20 26 27 305 253 242 229 209 207 209 178 181 207 221 216 212 220 226 226 222 224 224 219
129 119 128 149 69 235 247 284 174 161 215 227 230 220 134 114 94 49 33 47 46 33 31 31 29 26 10 16 72 112 105 130 169 211 236 236 227 233 232 224 229 231 225 223
120 130 123 127 200 274 285 216 158 162 246 206 185 176 166 161 84 41 27 41 51 47 41 43 41 44 44 42 53 78 74 76 74 12 311 286 241 238 237 236 239 235 227 231
61 89 113 127 172 243 253 203 148 112 276 211 179 176 186 118 83 29 12 41 46 45 49 49 48 50 50 41 58 69 62 55 37 16 1 347 297 254 250 251 253 244 235 245
68 62 115 157 213 260 255 144 116 174 242 190 169 155 118 106 129 128 62 54 53 50 54 58 58 53 42 40 63 65 56 45 27 27 30 22 7 332 307 303 287 272 261 261
163 153 172 149 198 259 213 139 180 215 208 131 133 125 111 112 107 99 80 66 61 58 57 62 66 57 39 39 63 64 50 27 26 34 33 21 10 5 5 349 331 314 297 285
189 186 182 187 212 238 219 209 214 160 139 140 139 131 124 116 109 100 88 80 70 68 63 62 75 67 45 36 56 64 31 16 34 38 28 13 9 3 356 353 344 335 326 308
235 151 156 245 263 248 239 230 203 154 135 133 132 127 123 118 113 106 98 88 80 73 74 72 76 71 49 32 44 50 23 25 44 37 17 5 4 356 352 349 340 331 322 313
211 162 186 252 272 283 249 204 165 122 113 113 113 115 122 119 115 114 107 98 93 87 77 77 83 80 51 24 26 17 14 29 36 22 4 354 350 342 335 331 314 308 287 283
200 181 182 227 230 194 217 149 137 124 121 121 114 101 102 112 116 112 109 109 108 103 95 92 91 88 30 5 360 351 355 13 20 360 345 335 329 326 326 324 321 308 296 300